#timestamp,LO_Frequency,Hit,StdDev 
1552158015.2,286047002.5,N
1552158035.9,286047000.6,N
1552158055.7,286047001.1,N
1552158075.6,286047003.9,N
1552158095.4,286047003.5,N
1552158115.2,286047003.1,N
1552158135.1,286047003.7,N
1552158136.0,286047003.7,N
1552158155.8,286047000.0,N
1552158175.7,286046999.1,N
1552158195.5,286046995.4,N
1552158215.3,286046994.6,N
1552158235.2,286046990.6,Y
1552158255.0,286046987.9,P
1552158255.9,286046987.9,N
1552158275.8,286046984.3,N
1552158295.6,286046982.1,N
1552158315.4,286046983.7,N
1552158335.3,286046986.2,N
1552158355.1,286046988.1,N
1552158375.8,286046989.9,N
1552158395.7,286046987.1,N
1552158415.5,286046989.7,N
1552158435.4,286046990.9,N
1552158455.2,286046990.5,N
1552158475.0,286046993.2,N
1552158475.9,286046993.2,N
1552158495.8,286046993.9,N
1552158515.6,286046995.7,N
1552158535.4,286046997.7,N
1552158555.3,286046999.3,N
1552158575.1,286046998.3,N
1552158595.9,286046998.8,N
1552158615.7,286046998.2,N
1552158635.5,286047000.5,N
1552158655.4,286047002.1,N
1552158675.2,286047000.1,N
1552158695.1,286047000.2,N
1552158696.0,286047000.2,N
1552158715.8,286047000.3,N
1552158735.6,286046999.6,N
1552158785.5,286046999.1,E
1552158795.4,286047000.5,N
1552158815.3,286047000.2,P
1552158835.1,286047003.2,P
1552158836.0,286047003.2,N
1552158855.8,286047005.4,Y
1552158875.7,286047001.6,P
1552158895.5,286047001.5,P
1552158915.4,286047007.2,P
1552158935.2,286047007.4,Y
1552158955.0,286047011.9,P
1552158955.9,286047005.2,N
1552158975.8,286047001.5,N
1552158995.6,286047004.3,N
1552159015.4,286047002.0,N
1552159035.3,286046998.9,N
1552159055.1,286046996.1,N
1552159075.9,286046996.4,N
1552159095.7,286046994.2,N
1552159115.5,286046996.0,N
1552159135.4,286046994.2,N
1552159155.2,286046992.2,N
1552159175.0,286046994.8,N
1552159176.0,286046994.8,N
1552159195.8,286046992.1,N
1552159215.6,286046992.2,N
1552159235.5,286046992.0,N
1552159255.3,286046992.5,N
1552159275.1,286046992.9,N
1552159295.9,286046990.8,N
1552159315.7,286046989.1,N
1552159335.6,286046993.0,N
1552159355.4,286046994.1,N
1552159375.2,286046995.0,N
1552159395.1,286046997.2,N
1552159396.0,286046997.2,N
1552159415.8,286046995.3,N
1552159435.6,286046996.3,N
1552159455.5,286046994.4,N
1552159475.3,286046994.3,N
1552159495.2,286046992.4,N
1552159515.9,286046991.9,N
1552159535.7,286046993.6,N
1552159555.6,286046992.4,N
1552159575.4,286046992.4,Y
1552159595.3,286046999.1,P
1552159615.1,286046998.8,N
1552159616.0,286046998.8,N
1552159635.8,286046998.4,N
1552159655.7,286046999.0,N
1552159675.5,286046999.4,N
1552159695.4,286046998.8,N
1552159715.2,286046998.9,N
1552159735.0,286047000.1,N
1552159735.9,286047000.1,N
1552159755.8,286047002.3,N
1552159775.6,286047001.4,N
1552159795.4,286047002.2,N
1552159815.3,286046999.8,N
1552159835.1,286047002.7,N
1552159855.9,286046999.9,N
1552159875.7,286047002.4,N
1552159895.5,286046999.9,N
1552159915.4,286047000.9,N
1552159935.2,286046998.2,N
1552159955.0,286046999.9,N
1552159955.9,286046999.9,N
1552159975.8,286047000.7,N
1552159995.6,286046998.3,N
1552160015.5,286046999.9,N
1552160035.3,286047002.6,N
1552160055.1,286047000.2,N
1552160075.9,286047000.8,N
1552160095.7,286047000.2,N
1552160115.6,286047000.0,N
1552160135.4,286047002.0,N
1552160155.2,286046999.8,N
1552160175.1,286046999.8,N
1552160176.0,286046999.8,N
1552160195.8,286047001.8,N
1552160215.6,286047002.4,N
1552160235.5,286047000.1,N
1552160255.3,286047002.0,N
1552160275.2,286047002.1,N
1552160295.9,286047002.2,N
1552160315.7,286047000.0,N
1552160365.6,286047004.0,E
1552160375.5,286047000.2,N
1552160395.4,286046997.0,P
1552160415.2,286046998.4,N
1552160435.0,286046998.4,N
1552160435.9,286046998.4,N
1552160455.8,286046998.7,N
1552160475.6,286046998.2,N
1552160495.5,286046998.1,N
1552160515.3,286046999.6,N
1552160535.1,286046998.4,N
1552160555.9,286047000.8,N
1552160575.7,286047000.4,N
1552160595.5,286047000.3,N
1552160615.4,286047001.1,N
1552160635.2,286047000.3,N
1552160655.1,286046998.1,N
1552160656.0,286046998.1,N
1552160675.8,286046997.0,N
1552160695.6,286046999.6,N
1552160715.5,286046996.9,N
1552160735.3,286046998.3,N
1552160755.1,286046998.1,N
1552160775.9,286047000.6,N
1552160795.7,286046998.5,N
1552160815.6,286046996.8,N
1552160835.4,286046995.9,Y
1552160855.2,286046997.9,P
1552160875.1,286046993.6,P
1552160876.0,286046993.6,N
1552160895.8,286046993.8,N
1552160915.7,286046994.3,N
1552160935.5,286046994.8,N
1552160955.3,286046993.0,Y
1552160975.2,286046997.0,P
1552160995.0,286046999.6,N
1552160995.9,286046999.6,N
1552161015.8,286046999.4,N
1552161035.6,286046999.9,N
1552161055.4,286047000.4,N
1552161075.3,286047000.0,N
1552161095.1,286046998.2,N
1552161115.8,286047000.4,N
1552161135.7,286047000.4,N
1552161155.5,286047002.8,N
1552161175.4,286047002.7,N
1552161195.2,286047001.9,N
1552161215.0,286047001.6,N
1552161215.9,286047001.6,N
1552161235.8,286047002.4,N
1552161255.6,286046999.9,N
1552161275.4,286047000.9,N
1552161295.3,286047000.5,N
1552161315.1,286047000.1,N
1552161335.9,286047002.3,N
1552161355.7,286047004.0,N
1552161375.5,286047004.1,N
1552161395.4,286047003.7,N
1552161415.2,286047001.3,N
1552161435.0,286047001.4,N
1552161436.0,286047001.4,N
1552161455.8,286047004.0,N
1552161475.6,286047001.3,N
1552161495.5,286047003.9,N
1552161515.3,286047004.3,N
1552161535.1,286047001.4,N
1552161555.9,286047001.9,N
1552161575.7,286047001.9,N
1552161595.6,286047002.6,N
